Grazzanise, Italy

7:31 AM CET on February 28, 2017 (GMT +0100)
Grazzanise Mil

Weather History for LIRM - December, 2013

Change the Weather History Date:

Friday, December 27, 2013

  Actual Average (LIRN) Record (LIRN)
Temperature  
Mean Temperature 48 °F -  
Max Temperature 55 °F 55 °F 64 °F (1999)
Min Temperature 40 °F 38 °F 30 °F (1996)
Degree Days  
Heating Degree Days 18    
Moisture  
Dew Point 44 °F    
Average Humidity 88    
Maximum Humidity 94    
Minimum Humidity 80    
Precipitation  
Precipitation 0.04 in 0.14 in - ()
Sea Level Pressure  
Sea Level Pressure 29.71 in    
Wind  
Wind Speed 3 mph ()    
Max Wind Speed 7 mph    
Max Gust Speed -    
Visibility 4.8 miles    
Events Fog , Rain    
Averages and records for this station are not official NWS values.
T = Trace of Precipitation, MM = Missing Value Source: Averaged Metar Reports

Daily Weather History Graph

Daily Weather History Graph

Search for Another Location

Airport or City:

Trip Planner

Search our weather history database for the weather conditions in past years. The results will help you decide how hot, cold, wet, or windy it might be!

Date:

Astronomy

Dec. 27, 2013 Rise Set
Actual Time 7:27 AM CET 4:42 PM CET
Civil Twilight 6:56 AM CET 5:13 PM CET
Nautical Twilight 6:21 AM CET 5:47 PM CET
Astronomical Twilight 5:48 AM CET 6:21 PM CET
Moon 1:39 AM CET (12/27) 12:43 PM CET (12/27)
Length of Visible Light 10h 16m
Length of Day
9h 14m
Waning Crescent, 31% of the Moon is Illuminated
Dec 27
Waning Crescent
Jan 1
New
Jan 8
First Quarter
Jan 16
Full
Jan 24
Last Quarter

Hourly Weather History & Observations

Time (CET) Temp. Windchill Dew Point Humidity Pressure Visibility Wind Dir Wind Speed Gust Speed Precip Events Conditions
12:55 AM 44.6 °F 43.1 °F 41.0 °F 87% 29.50 in 3.1 mi ESE 3.5 mph - N/A   Scattered Clouds
1:00 AM 45 °F - 42 °F 85% 29.51 in 3 mi ESE 3.5 mph - -   Mist
1:55 AM 44.6 °F - 41.0 °F 87% 29.50 in 3.1 mi Calm Calm - N/A Rain Light Rain
2:55 AM 44.6 °F - 41.0 °F 87% 29.50 in 2.5 mi WNW 2.3 mph - N/A Rain Light Rain
3:55 AM 44.6 °F - 41.0 °F 87% 29.50 in 2.5 mi Calm Calm - N/A   Mostly Cloudy
4:00 AM 45 °F - 41 °F 81% 29.53 in 2 mi Calm Calm - - Rain Light Rain
4:55 AM 44.6 °F - 41.0 °F 87% 29.53 in 2.5 mi North 2.3 mph - N/A   Scattered Clouds
5:55 AM 42.8 °F 40.1 °F 41.0 °F 93% 29.56 in 0.9 mi ENE 4.6 mph - N/A Fog Fog
6:55 AM 41.0 °F 38.0 °F 39.2 °F 93% 29.59 in 1.9 mi East 4.6 mph - N/A   Scattered Clouds
7:00 AM 41 °F - 38 °F 86% 29.60 in 2 mi East 4.6 mph - -   Mist
7:55 AM 41.0 °F - 37.4 °F 87% 29.62 in 2.5 mi ENE 2.3 mph - N/A   Mostly Cloudy
8:55 AM 41.0 °F 38.0 °F 37.4 °F 87% 29.68 in 6.2 mi North 4.6 mph - N/A   Mostly Cloudy
9:55 AM 42.8 °F - 39.2 °F 87% 29.71 in 6.2 mi NNE 2.3 mph - N/A   Mostly Cloudy
10:00 AM 42 °F - 39 °F 84% 29.73 in 4 mi NNE 2.3 mph - -   Mist
10:55 AM 44.6 °F - 41.0 °F 87% 29.74 in 6.2 mi North 2.3 mph - N/A   Mostly Cloudy
11:55 AM 48.2 °F - 44.6 °F 87% 29.74 in 6.2 mi NNE 2.3 mph - N/A   Mostly Cloudy
12:55 PM 51.8 °F - 48.2 °F 88% 29.74 in 6.2 mi East 2.3 mph - N/A   Scattered Clouds
1:00 PM 53 °F - 49 °F 80% 29.76 in 9 mi East 2.3 mph - -   Scattered Clouds
1:55 PM 53.6 °F - 50.0 °F 88% 29.74 in 6.2 mi Calm Calm - N/A   Mostly Cloudy
2:55 PM 53.6 °F - 50.0 °F 88% 29.77 in 6.2 mi West 3.5 mph - N/A   Mostly Cloudy
3:55 PM 53.6 °F - 50.0 °F 88% 29.77 in 6.2 mi SSW 2.3 mph - N/A   Mostly Cloudy
4:00 PM 54 °F - 51 °F 85% 29.80 in 9 mi SSW 2.3 mph - -   Scattered Clouds
4:55 PM 51.8 °F - 50.0 °F 94% 29.80 in 5.0 mi NE 2.3 mph - N/A Rain Light Rain
5:55 PM 50.0 °F - 48.2 °F 94% 29.83 in 4.3 mi East 4.6 mph - N/A Rain Rain
6:55 PM 50.0 °F - 48.2 °F 94% 29.86 in 6.2 mi ESE 4.6 mph - N/A   Mostly Cloudy
7:00 PM 50 °F - 47 °F 88% 29.86 in 6 mi ESE 4.6 mph - - Rain Light Rain
7:55 PM 50.0 °F - 46.4 °F 87% 29.86 in 4.3 mi ESE 4.6 mph - N/A   Mostly Cloudy
8:55 PM 48.2 °F - 46.4 °F 93% 29.89 in 6.2 mi East 6.9 mph - N/A   Mostly Cloudy
9:55 PM 48.2 °F - 46.4 °F 93% 29.89 in 6.2 mi NE 6.9 mph - N/A   Mostly Cloudy
10:00 PM 49 °F - 46 °F 85% 29.90 in 6 mi NE 6.9 mph - -   Scattered Clouds
10:55 PM 48.2 °F - 44.6 °F 87% 29.89 in 6.2 mi North 4.6 mph - N/A   Mostly Cloudy
11:55 PM 48.2 °F - 44.6 °F 87% 29.89 in 6.2 mi North 4.6 mph - N/A   Mostly Cloudy